SCP
0 0 0 0 0 0 0 0 0 0 0 0 0 0 0 0 0 0 0 0 0 0 0 0 0 0 0 0 0 0 0 0 0 0 0 0 0 0 0 0 0 0 0 0 0 0 0 0 0
0 0 0 0 0 0 0 0 0 0 0 0 0 0 0 0 0 0 0 0 0 0 0 0 0 0 0 0 0 0 0 0 0 0 0 0 0 0 0 0 0 0 0 0 0 0 0 0 0
0 0 0 0 0 0 0 0 0 0 0 0 0 0 0 0 0 0 0 0 0 0 0 0 0 0 0 0 0 0 0 0 0 0 0 0 0 0 0 0 0 0 0 0 0 0 0 0 0
0 0 0 0 0 0 0 0 0 0 0 0 0 0 0 0 0 0 0 0 0 0 0 0 0 0 0 0 0 0 0 0 0 0 0 0 0 0 0 0 0 0 0 0 0 0 0 0 0
0 0 0 0 0 0 0 0 0 0 0 0 0 0 0 0 0 0 0 0 0 0 0 0 0 0 0 0 0 0 0 0 0 0 0 0 0 0 0 0 0 0 0 0 0 0 0 0 0
0 0 0 0 0 0 0 0 0 0 0 0 0 0 0 0 0 0 0 0 0 0 0 0 0 0 0 0 0 0 0 0 0 0 0 0 0 0 0 0 0 0 0 0 0 0 0 0 0
0 0 0 0 0 0 0 0 0 0 0 0 0 0 0 0 0 0 0 0 0 0 0 0 0 0 0 0 0 0 0 0 0 0 0 0 0 0 0 0 0 0 0 0 0 -0 0 0 0
0 0 0 0 0 0 0 0 0 0 0 0 0 0 0 0 0 0 0 0 0 0 0 0 0 0 0 0 0 0 0 0 0 0 0 0 0 0 -0 -0 -0 0 0 0 -0 -0 -0 0 0
0 0 0 0 0 0 0 0 0 0 0 0 0 0 0 1 1 1 0 0 0 0 0 0 0 0 0 0 0 0 0 0 0 0 0 0 -0 -0 -0 -0 -0 -0 0 0 -0 -0 -0 0 0
-0 -0 0 0 0 0 0 0 0 0 0 0 0 0 1 1 1 1 1 0 0 0 0 0 0 0 0 0 0 0 0 0 -0 -0 -0 -0 -0 -0 -0 -0 -0 -0 -0 0 0 -0 -0 0 0
-0 -0 0 0 0 0 0 0 0 0 0 0 0 1 1 1 1 1 1 0 0 0 0 0 0 0 0 0 0 0 -0 -0 -0 -0 -0 -0 -0 -0 -0 -0 -0 -0 -0 0 0 0 0 0 0
-0 0 0 0 0 0 0 0 0 0 0 0 0 1 1 1 1 1 1 0 0 0 0 0 0 0 0 0 0 0 -0 -0 -0 -0 -0 -0 -0 -0 -0 -0 -0 -0 -0 -0 0 0 0 0 0
-0 0 0 0 0 0 0 0 0 0 0 0 1 1 1 1 1 1 1 0 0 0 0 0 0 0 0 0 0 0 -0 -0 -0 -0 -0 0 0 0 0 -0 -0 -0 -0 -0 0 0 0 0 0
0 0 0 0 0 0 0 0 0 0 0 1 1 1 1 1 1 1 1 1 1 0 0 0 0 0 0 0 0 0 0 -0 -0 -0 0 0 0 0 0 0 0 0 -0 -0 0 0 0 0 0
0 0 0 0 0 0 0 0 0 0 0 1 1 1 1 1 1 1 1 1 1 1 0 0 0 0 0 0 0 0 0 0 0 0 0 0 0 0 0 0 0 0 0 0 0 0 0 0 0
0 0 0 0 0 0 0 0 0 0 1 1 1 1 0 1 1 1 1 1 1 1 1 1 0 0 0 0 0 0 0 0 0 0 0 0 0 0 0 0 0 0 0 0 0 0 0 0 0
0 0 0 0 0 0 0 0 0 0 1 1 1 0 1 1 1 1 1 1 1 1 1 1 1 1 0 0 0 0 0 0 0 0 0 0 0 0 0 0 0 0 0 0 0 0 0 0 0
0 -0 0 0 0 0 0 0 0 0 1 1 1 1 1 1 1 1 1 1 1 1 1 1 1 1 1 0 0 0 0 0 0 0 0 0 0 0 0 0 0 0 0 0 0 0 0 0 0
0 0 0 0 0 0 0 0 0 0 1 1 1 1 1 1 1 1 1 1 1 1 1 1 1 1 1 1 0 0 0 0 0 0 0 0 0 0 0 0 0 0 0 0 0 0 0 0 0
0 0 0 0 0 0 0 0 0 0 1 1 1 1 1 1 1 1 2 2 2 1 1 1 1 1 1 1 0 0 0 0 0 0 0 0 0 0 0 0 0 0 0 0 0 0 0 0 0
0 0 0 0 0 0 0 0 0 0 1 1 1 1 1 2 2 2 2 2 2 1 1 1 1 1 1 1 0 0 0 0 0 0 0 0 0 0 0 0 0 0 0 0 0 0 0 0 0
0 0 0 0 0 0 0 0 0 0 1 1 1 1 2 2 2 2 2 2 2 2 1 1 1 1 1 1 1 0 0 0 0 0 0 0 0 0 0 0 0 0 0 0 0 0 0 0 0
0 0 0 0 0 0 0 0 0 0 0 1 1 1 2 2 2 2 2 2 2 1 1 1 1 1 1 1 1 1 0 0 0 0 0 0 0 0 0 0 0 0 0 0 0 0 0 0 0
0 0 0 0 0 0 0 0 0 0 0 1 1 1 2 2 2 2 2 2 2 1 1 1 1 1 1 1 1 1 0 0 0 0 0 0 0 0 0 0 0 0 0 0 0 0 0 0 0
0 0 0 0 0 0 0 0 0 0 0 1 1 1 2 2 2 2 2 2 2 1 1 1 1 1 1 1 1 1 0 0 0 0 0 0 0 0 0 0 0 0 0 0 0 0 0 0 0
0 0 0 0 0 0 0 0 0 0 0 1 1 1 2 2 2 2 2 2 2 1 1 1 1 1 1 1 1 1 0 0 0 0 0 0 0 0 0 0 0 0 0 0 0 0 0 0 0
0 0 0 0 0 0 0 0 0 0 0 0 1 1 1 1 2 2 2 2 1 1 1 1 1 1 1 1 1 1 0 0 0 0 0 0 0 0 0 0 0 0 0 0 0 0 0 0 0
0 0 0 0 0 0 0 0 0 0 0 0 1 1 1 1 1 1 1 1 1 1 1 1 1 1 1 1 1 0 0 0 0 0 0 0 0 0 0 0 0 0 0 0 0 0 0 0 0
0 0 0 0 0 0 0 0 0 0 0 0 1 1 1 1 1 1 1 1 1 1 1 1 1 1 1 1 1 0 0 0 0 0 0 0 0 0 0 0 0 0 0 0 0 0 0 0 0
0 0 0 0 0 0 0 0 0 0 0 0 1 1 1 1 1 1 1 1 1 1 1 1 1 1 1 1 1 0 0 0 0 0 0 0 0 0 0 0 0 0 0 0 0 0 0 0 0
Wind_Speed
4 3 1 1 4 4 2 2 7 7 7 8 10 10 9 6 5 8 6 15 17 14 11 14 17 18 17 17 16 16 16 16 17 17 17 17 17 17 17 17 17 17 16 16 16 16 16 16 16
2 2 2 3 5 3 1 4 10 9 11 13 12 11 10 9 10 12 9 15 17 14 10 13 18 18 17 17 16 16 16 16 16 16 16 16 16 16 16 16 16 16 16 16 16 16 15 15 15
2 0 2 3 2 2 1 4 10 11 10 10 8 7 7 9 11 7 11 17 15 12 10 14 19 18 18 17 16 15 16 16 16 16 16 16 16 16 16 15 15 15 15 15 15 14 14 14 13
1 3 3 3 2 4 3 5 10 14 10 10 10 8 6 7 8 14 19 18 16 11 9 14 19 18 18 17 16 16 16 16 15 15 15 15 15 15 15 15 15 14 14 14 13 13 12 12 11
3 4 4 3 4 3 3 6 9 11 7 10 12 9 6 6 20 21 19 18 16 11 9 13 19 18 18 17 16 16 15 15 15 15 15 15 15 15 15 15 14 14 13 13 12 12 11 10 10
3 4 3 2 4 4 2 8 11 16 15 13 12 9 5 13 20 19 18 16 15 13 10 12 18 18 17 17 16 15 15 15 14 14 14 14 14 14 14 14 14 13 13 12 11 10 10 9 9
3 3 2 3 3 2 2 8 12 15 13 9 9 9 7 12 16 17 17 16 14 13 11 9 10 13 17 17 16 15 15 15 14 14 14 14 14 14 13 13 13 13 12 11 10 9 9 8 8
4 3 1 2 1 2 3 5 10 14 10 11 9 10 12 15 16 17 15 14 13 11 10 8 7 7 8 9 15 16 15 15 14 14 14 14 14 13 13 11 11 12 11 10 9 8 7 7 6
2 3 2 3 2 2 2 9 4 6 11 8 5 8 17 20 21 18 15 13 11 11 8 8 8 7 7 7 12 12 14 14 13 11 14 11 6 6 7 10 11 11 10 9 8 7 5 5 4
4 3 7 5 3 3 3 8 7 6 9 8 10 13 18 20 21 20 18 17 15 14 11 9 9 9 8 8 6 5 6 6 5 4 6 4 4 4 6 9 11 10 9 7 6 5 3 2 2
4 6 5 5 4 3 3 4 4 11 7 13 20 22 21 20 18 18 18 17 17 15 14 11 11 10 8 6 6 3 3 4 4 5 5 4 3 3 3 2 4 4 5 2 2 1 0 0 1
3 7 6 6 4 2 4 5 5 7 10 14 22 25 22 20 19 18 18 17 16 16 14 13 12 10 8 7 6 5 4 4 4 5 6 4 3 3 3 2 2 2 1 1 1 0 1 1 1
5 7 8 6 5 3 4 4 5 5 11 15 17 19 20 19 16 14 15 16 16 15 15 14 12 11 9 8 6 7 5 5 5 5 5 6 5 4 4 3 2 2 2 2 2 2 2 1 1
5 5 7 5 5 2 5 2 4 5 13 16 18 17 17 17 16 15 15 15 15 16 16 14 13 12 10 8 6 6 6 5 5 5 6 7 5 5 4 4 3 3 3 3 3 3 2 1 1
4 6 8 6 3 2 5 1 3 10 15 17 17 16 14 13 15 17 18 17 16 16 15 13 13 12 12 10 8 7 6 6 5 5 6 6 6 6 5 4 4 3 3 3 2 2 1 1 1
5 3 4 7 3 3 6 4 6 12 17 14 15 16 14 12 14 15 15 15 14 14 14 14 13 12 11 9 7 6 6 6 5 5 5 6 7 7 5 4 4 4 3 3 3 2 2 1 1
4 2 4 8 5 3 6 6 8 11 17 16 15 15 15 13 12 13 15 15 14 14 14 12 11 12 10 9 6 6 6 6 5 5 5 6 7 7 5 4 3 4 3 3 3 2 2 2 1
4 3 4 7 6 2 5 7 8 10 16 17 16 14 14 16 16 15 14 14 13 13 13 12 11 11 9 7 5 4 5 5 5 5 6 7 6 7 5 4 4 4 3 3 2 3 2 2 2
4 5 9 10 8 2 6 8 10 11 12 14 14 15 16 16 13 13 14 14 13 12 13 12 12 10 9 6 6 5 5 5 5 5 7 8 7 7 6 4 4 4 4 4 4 3 3 1 1
7 8 10 11 7 1 4 6 7 10 14 16 17 17 17 13 12 13 14 14 14 14 14 13 12 11 10 7 5 4 4 4 4 5 6 7 7 7 7 5 5 5 4 4 4 3 3 1 2
9 9 9 8 7 3 2 2 2 4 6 9 13 15 16 18 18 17 16 15 14 15 15 13 12 11 10 8 5 4 3 2 2 4 4 6 7 7 6 7 6 5 5 5 5 5 5 3 2
9 10 9 7 3 4 2 2 6 3 3 6 9 11 13 15 15 15 15 15 15 14 13 12 12 11 10 9 8 8 6 6 6 5 5 6 7 7 7 7 7 6 5 5 5 5 4 4 3
10 9 6 4 2 1 1 3 7 1 4 7 9 12 13 14 16 16 15 15 14 13 12 11 10 10 9 9 9 9 6 5 3 4 5 6 6 6 7 7 6 6 5 6 6 5 5 4 4
9 4 4 4 5 1 4 4 6 5 8 8 8 11 13 14 14 14 13 11 10 11 11 11 11 10 10 10 9 9 9 7 6 6 6 6 4 5 7 7 7 6 5 6 6 5 6 5 5
4 4 3 4 3 6 4 3 8 7 7 9 10 10 11 13 13 12 11 11 11 12 12 11 12 11 10 11 10 10 10 9 9 8 8 7 5 5 7 7 6 6 6 6 6 6 6 6 6
6 11 9 6 5 5 3 4 8 6 4 5 7 8 9 10 12 13 13 11 11 12 12 12 12 10 10 10 10 9 9 7 6 7 6 7 6 6 7 7 7 7 6 7 6 5 6 5 6
6 6 10 8 2 0 4 5 6 3 2 4 6 8 9 10 11 11 10 9 9 10 11 12 12 10 10 10 8 8 8 8 7 7 6 6 5 6 7 7 7 7 7 7 6 5 6 5 6
9 8 6 6 5 3 4 3 4 3 1 2 5 7 7 9 8 8 9 9 8 8 8 9 9 10 9 8 8 7 8 8 7 6 7 7 7 7 7 7 7 7 7 7 6 5 6 6 6
4 4 6 6 6 6 3 6 6 6 5 5 5 5 7 9 8 7 7 8 7 6 6 7 7 7 7 8 7 7 7 7 6 6 7 6 6 7 7 7 7 7 7 7 6 6 6 7 6
8 8 9 7 4 5 4 8 4 5 5 6 7 6 6 7 7 7 7 8 7 6 6 6 6 6 7 7 7 7 6 6 6 6 6 6 6 6 6 6 6 6 6 6 6 7 6 6 6
Wind_Direction
243 236 190 51 56 51 97 111 104 80 61 67 82 88 89 74 112 128 127 135 133 135 137 135 132 127 124 121 117 114 111 109 109 109 108 109 110 111 112 111 111 110 109 108 107 106 106 107 107
259 220 57 45 69 55 51 103 95 97 114 104 83 83 77 69 84 107 122 136 133 134 135 136 133 130 127 125 122 118 116 114 112 113 112 111 112 113 112 112 113 112 111 110 110 110 110 109 109
281 194 74 60 84 157 172 107 114 112 108 96 87 69 73 103 111 114 135 137 131 131 133 140 136 133 131 128 125 122 119 119 118 116 115 115 115 115 114 115 114 114 113 113 112 112 113 111 110
51 46 43 52 273 221 196 154 125 114 92 83 92 72 69 106 117 129 137 136 129 130 134 141 138 136 134 131 129 127 124 123 122 120 119 119 118 117 117 116 116 115 115 115 114 115 114 110 107
73 73 48 346 275 257 202 160 133 116 103 95 92 86 60 79 119 131 137 135 133 133 134 139 139 139 137 134 133 131 129 127 125 123 122 122 121 120 119 119 119 118 118 118 118 116 113 109 104
50 70 74 299 287 291 175 143 115 106 111 106 105 100 87 127 131 139 138 136 136 137 136 140 142 141 140 138 137 135 132 130 129 128 126 125 124 122 122 122 122 121 121 122 121 119 115 107 102
117 99 184 231 274 282 184 134 129 128 130 132 126 104 120 145 142 140 136 134 136 139 138 138 143 144 144 142 140 139 137 135 134 132 132 130 128 127 126 126 126 126 126 126 125 124 120 112 103
149 99 304 267 258 241 182 126 136 136 128 133 128 129 153 158 142 134 132 133 136 140 141 138 138 139 141 144 145 144 141 140 139 137 137 135 134 131 130 128 130 130 131 133 132 129 124 113 101
121 80 245 228 184 238 140 108 107 106 121 136 131 137 150 145 138 135 134 135 142 146 147 145 143 141 140 145 151 147 146 146 143 142 142 135 124 125 130 136 137 136 137 139 139 136 132 115 96
123 170 230 219 192 200 163 134 139 118 118 113 110 121 137 142 145 147 150 152 155 157 159 159 155 153 154 155 142 142 144 143 138 138 134 127 129 139 141 147 144 144 144 146 147 147 141 107 80
182 213 244 258 223 179 153 143 120 128 141 155 146 148 150 150 153 155 159 160 162 162 164 166 164 164 164 150 151 150 143 142 145 149 145 141 137 138 129 136 142 145 148 138 147 154 281 173 139
254 264 260 260 258 169 168 142 132 152 176 167 154 153 154 157 161 163 164 164 163 165 169 169 170 169 167 157 160 159 157 160 163 168 162 151 144 142 145 147 148 150 143 155 156 222 268 275 229
258 273 278 262 268 220 165 158 148 166 151 146 148 153 159 162 163 164 164 165 165 169 171 173 173 171 166 162 168 168 171 173 173 171 170 162 156 160 164 166 169 176 171 173 181 212 242 244 182
255 283 291 283 284 226 146 158 109 155 143 147 155 163 168 166 162 162 164 168 171 172 172 173 172 170 167 170 172 168 174 175 173 174 175 168 164 167 168 172 178 189 189 183 180 188 187 182 150
295 313 312 290 265 220 121 54 167 156 150 157 164 169 172 171 166 170 171 171 172 172 170 171 171 169 169 173 175 169 174 174 175 175 174 169 166 169 170 171 180 193 186 174 164 167 146 144 138
355 346 304 291 264 235 132 200 203 160 156 164 170 173 174 179 177 174 172 170 169 167 168 171 173 169 168 168 168 163 168 169 174 171 168 168 167 167 166 168 180 180 164 157 156 150 136 133 138
356 293 275 294 267 218 153 195 200 173 165 169 175 177 176 178 183 179 174 171 168 167 168 169 166 167 167 164 160 156 158 168 175 171 168 169 170 166 162 171 178 169 161 162 173 154 148 152 162
237 259 280 276 287 223 169 194 192 181 173 176 177 177 180 183 188 181 174 170 167 167 168 168 165 167 162 155 148 146 151 166 173 176 176 171 172 168 163 171 177 166 156 164 166 155 149 153 164
242 285 287 281 288 245 181 187 193 182 178 177 180 181 186 189 184 175 172 170 167 166 169 171 168 171 165 161 161 163 172 175 178 185 181 174 174 169 166 172 170 167 169 176 169 151 150 160 136
251 268 277 288 292 250 190 201 193 182 185 182 180 185 186 177 172 177 173 173 173 173 174 174 174 175 175 172 166 167 165 174 180 185 185 181 175 172 174 170 174 173 169 173 170 153 149 176 156
251 238 250 260 300 337 136 281 256 209 188 187 181 181 181 179 177 178 177 177 174 178 180 180 180 177 176 167 152 144 133 137 166 183 189 194 182 179 179 176 174 176 174 180 182 169 161 175 198
251 243 241 252 263 280 149 223 270 219 194 183 181 176 179 180 176 177 176 176 180 183 180 179 179 177 176 169 169 171 177 186 194 186 185 189 189 183 183 179 176 181 182 183 189 182 169 160 183
232 244 242 243 203 296 346 149 273 226 191 203 187 177 180 181 177 178 180 181 182 179 178 177 174 178 177 177 180 182 189 192 181 174 181 190 195 191 187 185 183 186 188 192 192 182 178 173 177
224 254 339 35 70 283 247 162 259 228 199 192 189 177 176 176 178 178 178 172 177 174 176 176 177 183 182 183 187 189 190 188 182 185 189 195 196 196 195 194 191 191 192 195 195 190 186 189 187
193 116 34 356 7 253 261 171 243 245 205 182 180 182 177 170 172 172 172 170 175 176 179 181 182 188 189 190 193 195 194 193 194 192 195 195 196 201 204 201 196 196 198 195 192 194 198 195 193
191 147 158 184 212 272 320 228 254 254 196 166 166 161 157 162 168 173 175 173 177 178 179 182 185 189 190 195 198 197 195 196 200 197 196 201 202 205 200 200 200 199 198 201 196 201 205 199 203
176 175 168 140 167 250 281 284 311 345 69 126 144 138 151 159 166 171 170 171 177 180 182 183 185 188 193 196 196 198 197 195 198 198 197 201 201 203 200 199 201 202 203 204 197 207 211 202 207
174 166 114 122 155 229 276 260 248 272 275 135 146 149 148 149 153 162 168 175 179 180 179 181 186 190 191 191 194 200 201 197 194 194 200 201 200 202 197 201 201 204 206 207 205 210 211 208 214
167 143 130 135 155 158 225 264 232 207 180 157 151 153 149 145 151 160 171 170 163 162 172 180 183 181 186 191 193 195 196 194 190 197 204 200 197 197 199 201 199 203 208 209 209 214 209 211 216
173 176 149 152 201 163 169 260 270 187 164 144 138 139 142 137 140 148 157 149 147 155 172 182 181 184 190 189 186 189 189 186 188 194 199 195 195 195 194 194 195 200 202 201 201 209 207 206 210